IT9AOO-2 Cortile Piombino IT current weather conditions

sailwx.info

Wind from 279

Air temperature 21.7° C
Dewpoint 14.8° C

Last reported at 2020-Oct-26 10:03 UTC.
Time now 2020-Oct-26 10:42 UTC

Location: N 38°08' E 013°19'.
View on Google Maps.

See reports from other nearby stations

  
Tides and Currents Weather Stations Pressure Air Temp Water Temp Dewpoint Dewpoint Depression Visibility Wind Speed Wind Dir Waves Ship Positions
date/time (UTC)wind fromknots sea level pressurealtimeterstation pressurevisibilityair tempwater tempwave heightnotes
2020-Oct-26 10:03 279 21.7
2020-Oct-26 09:59 278 21.7
2020-Oct-26 09:53 337 21.7
2020-Oct-26 09:49 342 21.7
2020-Oct-26 09:43 296 21.1
2020-Oct-26 09:39 315 21.1
2020-Oct-26 09:33 330 21.1
2020-Oct-26 09:29 343 21.1
2020-Oct-26 09:23 347 20.6
2020-Oct-26 09:19 359 20.6
2020-Oct-26 09:13 014 20.6
2020-Oct-26 09:09 332 20.6
2020-Oct-26 09:03 277 20.0
2020-Oct-26 08:59 340 20.0
2020-Oct-26 08:53 354 20.0
2020-Oct-26 08:49 332 19.4
2020-Oct-26 08:43 335 19.4
2020-Oct-26 08:39 344 19.4
2020-Oct-26 08:33 336 19.4
2020-Oct-26 08:29 325 18.9
2020-Oct-26 08:23 314 18.9
2020-Oct-26 08:19 314 18.3
2020-Oct-26 08:14 18.3
2020-Oct-26 08:07 17.8
2020-Oct-26 08:03 17.8
2020-Oct-26 07:59 17.2
2020-Oct-26 07:53 17.2
2020-Oct-26 07:49 17.2
2020-Oct-26 07:43 16.7
2020-Oct-26 07:39 16.7
2020-Oct-26 07:33 16.7
2020-Oct-26 07:29 16.7
2020-Oct-26 07:23 16.1
2020-Oct-26 07:19 337 16.1
2020-Oct-26 07:13 337 16.1
2020-Oct-26 07:09 15.6
2020-Oct-26 07:03 314 15.6
2020-Oct-26 06:59 314 15.6
2020-Oct-26 06:53 15.6
2020-Oct-26 06:49 15.0
2020-Oct-26 06:43 15.0
2020-Oct-26 06:39 15.0
2020-Oct-26 06:33 15.0
2020-Oct-26 06:29 15.0
2020-Oct-26 06:23 14.4
2020-Oct-26 06:19 14.4
2020-Oct-26 06:13 14.4
2020-Oct-26 06:09 14.4
2020-Oct-26 06:03 14.4
2020-Oct-26 05:59 14.4
2020-Oct-26 05:53 14.4
2020-Oct-26 05:49 14.4
2020-Oct-26 05:43 270 14.4
2020-Oct-26 05:39 270 14.4
2020-Oct-26 05:33 280 14.4
2020-Oct-26 05:29 295 14.4
2020-Oct-26 05:23 309 14.4
2020-Oct-26 05:19 295 15.0
2020-Oct-26 05:13 270 15.0
2020-Oct-26 05:09 15.0
2020-Oct-26 05:03 15.0
2020-Oct-26 04:59 15.0
2020-Oct-26 04:53 270 15.0
2020-Oct-26 04:49 291 15.0
2020-Oct-26 04:43 314 15.0
2020-Oct-26 04:39 299 15.0
2020-Oct-26 04:33 298 15.0
2020-Oct-26 04:29 296 15.0
2020-Oct-26 04:23 277 15.0
2020-Oct-26 04:19 270 15.0
2020-Oct-26 04:13 15.0
2020-Oct-26 04:09 15.0
2020-Oct-26 04:03 283 15.6
2020-Oct-26 03:59 269 15.6
2020-Oct-26 03:53 277 15.6
2020-Oct-26 00:03
2020-Oct-25 22:03 223
2020-Oct-25 20:03
2020-Oct-25 19:03
2020-Oct-25 18:09
2020-Oct-25 18:03
2020-Oct-25 17:04
2020-Oct-25 16:03 314 20.0
2020-Oct-25 15:19
2020-Oct-25 15:13
2020-Oct-25 15:09
2020-Oct-25 15:03 21.7
2020-Oct-25 14:33 324 22.8
2020-Oct-25 14:29 313 22.8
2020-Oct-25 14:23 332 2 22.8
2020-Oct-25 14:19 22.8
2020-Oct-25 14:13 019 22.8
2020-Oct-25 14:09 024 0 22.2
2020-Oct-25 14:03 005 1 22.8
2020-Oct-25 13:43 341 21.7
2020-Oct-25 13:39 338 21.7
2020-Oct-25 13:33 023 0 21.7
2020-Oct-25 13:29 042 0 21.7
2020-Oct-25 13:23 335 0 22.2
2020-Oct-25 13:19 313 0 21.7
2020-Oct-25 13:13
2020-Oct-25 13:09
2020-Oct-25 13:03
2020-Oct-25 12:59
2020-Oct-25 12:53
2020-Oct-25 12:49
2020-Oct-25 12:43
2020-Oct-25 12:39
2020-Oct-25 12:33
2020-Oct-25 12:29
2020-Oct-25 12:23
2020-Oct-25 12:19
2020-Oct-25 12:13
2020-Oct-25 12:09
2020-Oct-25 12:03
2020-Oct-25 11:59
2020-Oct-25 11:53
2020-Oct-25 11:49
2020-Oct-25 11:43
2020-Oct-25 11:39
2020-Oct-25 11:33
2020-Oct-25 11:29
2020-Oct-25 11:23
2020-Oct-25 11:19
2020-Oct-25 11:13
2020-Oct-25 11:09
2020-Oct-25 11:03
2020-Oct-25 10:59
2020-Oct-25 10:53
2020-Oct-25 10:49
2020-Oct-25 10:43
2020-Oct-25 10:39
2020-Oct-25 10:33
2020-Oct-25 10:29
2020-Oct-25 10:23
2020-Oct-25 10:19 21.7
2020-Oct-25 10:13 21.7
2020-Oct-25 10:09 21.7
2020-Oct-25 10:03 21.7
2020-Oct-25 09:59 21.7
2020-Oct-25 09:53 21.7
2020-Oct-25 09:49 21.7
2020-Oct-25 09:43 21.7
2020-Oct-25 09:39 21.7
2020-Oct-25 09:33 21.1
2020-Oct-25 09:29 21.1
2020-Oct-25 09:23 21.1
2020-Oct-25 09:19 21.1
2020-Oct-25 09:13 21.1
2020-Oct-25 09:09 21.1
2020-Oct-25 09:03 21.1
2020-Oct-25 08:59 21.1
2020-Oct-25 08:53 20.6
2020-Oct-25 08:49 20.6
2020-Oct-25 08:43 20.6
2020-Oct-25 08:39 20.6
2020-Oct-25 08:33 20.6
2020-Oct-25 08:29 20.6
2020-Oct-25 08:23 20.6
2020-Oct-25 08:19 20.6
2020-Oct-25 08:13 277 20.6
2020-Oct-25 08:09 290 0 20.6
2020-Oct-25 08:03 345 20.6
2020-Oct-25 07:59 295 20.6
2020-Oct-25 07:53 262 2 20.6
2020-Oct-25 07:49 297 20.6
2020-Oct-25 07:43 304 20.0
2020-Oct-25 07:39 302 20.0
2020-Oct-25 07:33 324 20.0
2020-Oct-25 07:29 308 20.0
2020-Oct-25 07:23 306 20.0
2020-Oct-25 07:19 328 19.4
2020-Oct-25 07:13 273 19.4
2020-Oct-25 07:09 231 19.4
2020-Oct-25 07:03 236 19.4
2020-Oct-25 06:59 285 19.4
2020-Oct-25 06:53 254 18.9
2020-Oct-25 06:49 259 18.9
2020-Oct-25 06:43 301 18.9
2020-Oct-25 06:39 297 18.9
2020-Oct-25 06:33 245 18.3
2020-Oct-25 06:29 234 18.3
2020-Oct-25 06:23 254 18.3
2020-Oct-25 06:19 270 18.3
2020-Oct-25 06:13 270 18.3
2020-Oct-25 06:09 266 18.3
2020-Oct-25 06:03 262 17.8
2020-Oct-25 05:59 247 17.8
2020-Oct-25 05:53 254 17.8
2020-Oct-25 05:49 283 17.8
2020-Oct-25 05:43 247 17.8
2020-Oct-25 05:39 314 17.8
2020-Oct-25 05:33 307 18.3
2020-Oct-25 05:29 294 18.3
2020-Oct-25 05:23 285 18.3
2020-Oct-25 05:19 277 18.3
2020-Oct-25 05:13 350 18.3
2020-Oct-25 05:09 357 18.3
2020-Oct-25 05:03 345 0 gusting 2 18.3
2020-Oct-25 04:59 306 18.3
2020-Oct-25 04:53 293 18.3
2020-Oct-25 04:49 277 18.3
2020-Oct-25 04:43 289 18.3
2020-Oct-25 04:39 315 18.3
2020-Oct-25 04:33 310 18.3
2020-Oct-25 04:29 265 18.3
2020-Oct-25 04:23 314 18.3
2020-Oct-25 04:19 323 18.3
2020-Oct-25 04:13 334 18.3
2020-Oct-25 04:09 314 18.3
2020-Oct-25 04:03 320 18.3
2020-Oct-25 03:59 325 18.3
2020-Oct-25 03:53 316 18.3
2020-Oct-25 03:49 307 18.3
2020-Oct-25 03:43 288 18.3
2020-Oct-25 03:39 275 18.3
2020-Oct-25 03:33 314 18.3
2020-Oct-25 03:29 278 18.3
2020-Oct-25 03:23 344 18.3
2020-Oct-25 03:19 298 18.3
2020-Oct-25 03:13 235 18.3
2020-Oct-25 03:09 230 18.3
2020-Oct-25 03:03 225 18.3
2020-Oct-25 02:59 240 18.3
2020-Oct-25 02:53 286 18.3
2020-Oct-25 02:49 309 18.3
2020-Oct-25 02:43 307 18.3
2020-Oct-25 02:39 284 18.3
2020-Oct-25 02:33 312 18.9
2020-Oct-25 02:29 305 18.9
2020-Oct-25 02:23 328 18.9
2020-Oct-25 02:19 352 18.9
2020-Oct-25 02:13 283 18.9
2020-Oct-25 02:09 238 18.9
2020-Oct-25 02:03 315 18.9
2020-Oct-25 00:59 313 19.4
2020-Oct-25 00:53 307 0 gusting 4 19.4
2020-Oct-25 00:49 314 19.4
2020-Oct-25 00:43 338 19.4
2020-Oct-25 00:39 336 19.4
2020-Oct-25 00:33 358 19.4
2020-Oct-25 00:29 010 19.4
2020-Oct-25 00:23 359 1 gusting 5 19.4
2020-Oct-25 00:19 336 19.4
2020-Oct-25 00:13 318 19.4
2020-Oct-25 00:09 321 19.4
2020-Oct-25 00:03 313 19.4
2020-Oct-24 23:59 313 19.4
2020-Oct-24 23:53 315 19.4
2020-Oct-24 23:49 322 19.4
2020-Oct-24 23:43 339 19.4
2020-Oct-24 23:39 341 19.4
2020-Oct-24 23:33 327 19.4
2020-Oct-24 23:29 306 19.4
2020-Oct-24 23:23 343 19.4
2020-Oct-24 23:19 342 19.4
2020-Oct-24 23:13 277 19.4
2020-Oct-24 23:09 271 19.4
2020-Oct-24 23:03 250 19.4
2020-Oct-24 22:59 254 19.4
2020-Oct-24 22:53 002 19.4
2020-Oct-24 22:49 013 19.4
2020-Oct-24 22:43 339 0 gusting 2 19.4
2020-Oct-24 22:39 279 19.4
2020-Oct-24 22:33 252 19.4
2020-Oct-24 22:29 288 19.4
2020-Oct-24 22:23 318 19.4
2020-Oct-24 22:19 264 19.4
2020-Oct-24 22:13 254 19.4
2020-Oct-24 22:09 290 19.4
2020-Oct-24 22:03 322 19.4
2020-Oct-24 21:59 344 19.4
2020-Oct-24 21:53 350 19.4
2020-Oct-24 21:49 312 19.4
2020-Oct-24 21:43 287 19.4
2020-Oct-24 21:39 288 19.4
2020-Oct-24 21:33 284 19.4
2020-Oct-24 21:29 291 19.4
2020-Oct-24 21:23 316 19.4
2020-Oct-24 21:19 325 19.4
2020-Oct-24 21:13 323 19.4
2020-Oct-24 21:09 320 19.4
2020-Oct-24 21:03 311 19.4
2020-Oct-24 20:59 295 19.4
2020-Oct-24 20:53 313 19.4
2020-Oct-24 20:49 272 19.4
2020-Oct-24 20:43 254 1 gusting 3 19.4
2020-Oct-24 20:39 273 19.4
2020-Oct-24 20:33 276 19.4
2020-Oct-24 20:29 338 19.4
2020-Oct-24 20:23 004 0 gusting 3 19.4
2020-Oct-24 20:19 342 19.4
2020-Oct-24 20:13 251 19.4
2020-Oct-24 20:09 218 0 gusting 2 19.4
2020-Oct-24 20:03 296 19.4
2020-Oct-24 19:59 333 19.4
2020-Oct-24 19:53 341 19.4
2020-Oct-24 19:49 335 2 gusting 5 19.4
2020-Oct-24 19:43 312 0 gusting 4 19.4
2020-Oct-24 19:39 291 19.4
2020-Oct-24 19:33 285 19.4
2020-Oct-24 19:29 271 19.4
2020-Oct-24 19:23 338 19.4
2020-Oct-24 19:19 337 19.4
2020-Oct-24 19:13 348 0 gusting 3 19.4
2020-Oct-24 19:09 014 0 gusting 3 20.0
2020-Oct-24 19:03 318 20.0
2020-Oct-24 18:59 304 20.0
2020-Oct-24 18:53 336 20.0
2020-Oct-24 18:49 347 20.0
2020-Oct-24 18:43 296 20.0
2020-Oct-24 18:39 264 20.0
2020-Oct-24 18:33 287 20.0
2020-Oct-24 18:29 313 1 gusting 5 20.0
2020-Oct-24 18:23 286 20.0
2020-Oct-24 18:19 266 1 gusting 6 20.0
2020-Oct-24 18:13 317 20.0
2020-Oct-24 18:09 337 20.0
2020-Oct-24 18:03 320 20.0
2020-Oct-24 17:59 306 20.0
2020-Oct-24 17:53 349 20.0
2020-Oct-24 17:49 335 1 gusting 3 20.0
2020-Oct-24 17:43 279 20.0
2020-Oct-24 17:39 292 20.0
2020-Oct-24 17:33 280 20.0
2020-Oct-24 17:29 277 0 gusting 3 20.0
2020-Oct-24 17:23 331 0 gusting 4 20.0
2020-Oct-24 17:19 356 0 gusting 4 20.0
2020-Oct-24 17:13 175 0 gusting 5 20.0
2020-Oct-24 17:09 177 0 gusting 5 20.0
2020-Oct-24 17:03 196 1 gusting 5 20.0
2020-Oct-24 16:59 309 20.6
2020-Oct-24 16:53 288 20.6
2020-Oct-24 16:49 294 20.6
2020-Oct-24 16:43 345 20.6
2020-Oct-24 16:39 355 0 gusting 5 20.6
2020-Oct-24 16:33 348 20.6
2020-Oct-24 16:29 352 20.6
2020-Oct-24 16:23 353 2 gusting 6 20.6
2020-Oct-24 16:19 356 0 gusting 4 20.6
2020-Oct-24 16:13 075 20.6
2020-Oct-24 16:09 113 1 gusting 4 20.6
2020-Oct-24 16:03 053 1 gusting 6 20.6
2020-Oct-24 15:59 006 0 gusting 6 20.6
2020-Oct-24 15:53 359 21.1
2020-Oct-24 15:49 353 0 gusting 5 21.1
2020-Oct-24 15:43 323 2 gusting 5 21.1
2020-Oct-24 15:39 340 0 gusting 5 21.1
2020-Oct-24 15:33 011 21.1
2020-Oct-24 15:29 011 0 gusting 4 21.7
2020-Oct-24 15:23 354 21.7
2020-Oct-24 15:19 339 21.7
2020-Oct-24 15:13 260 21.7
2020-Oct-24 15:09 274 21.7
2020-Oct-24 15:03 337 21.7
2020-Oct-24 14:59 355 0 gusting 5 21.7
2020-Oct-24 14:53 336 0 gusting 5 21.7
2020-Oct-24 14:49 332 21.7
2020-Oct-24 14:43 330 21.7
2020-Oct-24 14:39 322 1 gusting 5 21.7
2020-Oct-24 14:33 317 21.7
2020-Oct-24 14:29 011 21.7
2020-Oct-24 14:23 012 22.2
2020-Oct-24 14:19 331 22.2
2020-Oct-24 14:13 283 22.2
2020-Oct-24 14:09 273 22.2
2020-Oct-24 14:03 285 22.8
2020-Oct-24 13:59 311 22.2
2020-Oct-24 13:53 327 0 gusting 2 22.2
2020-Oct-24 13:49 335 22.2
2020-Oct-24 13:43 352 22.8
2020-Oct-24 13:39 349 0 gusting 5 22.8
2020-Oct-24 13:33 338 23.3
2020-Oct-24 13:29 344 0 gusting 3 23.3
2020-Oct-24 13:23 344 23.9
2020-Oct-24 13:19 345 24.4
2020-Oct-24 13:13 007 23.9
2020-Oct-24 13:09 025 1 gusting 5 23.9
2020-Oct-24 13:03 025 1 gusting 5 23.3
2020-Oct-24 12:59 356 23.3
2020-Oct-24 12:53 359 2 gusting 5 23.3
2020-Oct-24 12:49 347 23.3
2020-Oct-24 12:43 334 23.3
2020-Oct-24 12:39 349 23.3
2020-Oct-24 12:33 010 23.9
2020-Oct-24 12:29 008 0 gusting 4 23.9
2020-Oct-24 12:23 313 0 gusting 3 23.3
2020-Oct-24 12:19 290 23.3
2020-Oct-24 12:13 315 0 gusting 3 23.3
2020-Oct-24 12:09 326 23.3
2020-Oct-24 12:03 342 23.3
2020-Oct-24 11:59 355 23.3
2020-Oct-24 11:53 355 0 gusting 4 23.3
2020-Oct-24 11:49 328 23.3
2020-Oct-24 11:43 340 23.3
2020-Oct-24 11:39 341 23.3
2020-Oct-24 11:33 347 23.3
2020-Oct-24 11:29 353 23.3
2020-Oct-24 11:23 337 22.8
2020-Oct-24 11:19 356 0 gusting 2 23.3
2020-Oct-24 11:13 008 1 gusting 2 22.8
2020-Oct-24 11:09 349 22.8
2020-Oct-24 11:03 003 22.8
2020-Oct-24 10:59 354 0 gusting 5 22.8
2020-Oct-24 10:53 343 2 gusting 5 22.8
2020-Oct-24 10:49 308 22.8
2020-Oct-24 10:43 342 22.2
2020-Oct-24 10:39 352 0 gusting 10 22.2
2020-Oct-24 10:33 276 0 gusting 7 22.2
2020-Oct-24 10:29 282 1 gusting 7 22.2